Location: Unspecified
(56.5167°N, 0.0000°E)
Time: 07:33:40
(UTC+02:00)

Resurs 1-4 Rocket - Pass Details

Date: 03 August 2020
Orbit: 799 x 815 km, 98.6° (Epoch: 21 September)

Event Time Altitude Azimuth Distance (km) Brightness Sun altitude
Rises 05:06:31 0° 14° (NNE) 3,345 6.5 -7.0°
Reaches altitude 10° 05:09:01 10° 6° (N) 2,407 5.5 -6.8°
Maximum altitude 05:13:48 36° 302° (WNW) 1,274 3.1 -6.3°
Drops below altitude 10° 05:18:33 10° 237° (WSW) 2,385 3.9 -5.9°
Enters shadow 05:19:20 - 234° (SW) 2,666 4.1 -5.8°
